Weather History for Wooster, OH

Change the Weather History Date:

Tuesday, November 5, 2013

  Actual Average Record
Temperature  
Mean Temperature 47 °F -  
Max Temperature 57 °F 52 °F 71 °F (2008)
Min Temperature 37 °F 34 °F 25 °F (2011)
Degree Days  
Heating Degree Days 18    
Moisture  
Dew Point 36 °F    
Average Humidity 66    
Maximum Humidity 82    
Minimum Humidity 49    
Precipitation  
Precipitation 0.00 in - - ()
Sea Level Pressure  
Sea Level Pressure 30.39 in    
Wind  
Wind Speed 3 mph (SSE)    
Max Wind Speed 9 mph    
Max Gust Speed -    
Visibility 10 miles    
Events Rain    
Averages and records for this station are not official NWS values.
T = Trace of Precipitation, MM = Missing Value Source: NWS Daily Summary

Daily Weather History Graph

Daily Weather History Graph

Search for Another Location

Airport:

Trip Planner

Search our weather history database for the weather conditions in past years. The results will help you decide how hot, cold, wet, or windy it might be!

Date:

Astronomy

Nov. 05, 2013 Rise Set
Actual Time 7:03 AM EST 5:18 PM EST
Civil Twilight 6:34 AM EST 5:47 PM EST
Nautical Twilight 6:01 AM EST 6:19 PM EST
Astronomical Twilight 5:29 AM EST 6:52 PM EST
Moon 9:17 AM EST (11/5) 7:18 PM EST (11/5)
Length of Visible Light 11h 13m
Length of Day
10h 15m
Waxing Crescent, 6% of the Moon is Illuminated
Nov 5
Waxing Crescent
Nov 10
First Quarter
Nov 17
Full
Nov 25
Last Quarter
Dec 2
New

Hourly Weather History & Observations

Time (EST) Temp. Windchill Dew Point Humidity Pressure Visibility Wind Dir Wind Speed Gust Speed Precip Events Conditions
12:56 AM 37.9 °F - 32.0 °F 79% 30.42 in 10.0 mi Calm Calm - 0.00 in Rain Light Rain
1:56 AM 37.0 °F - 30.9 °F 79% 30.43 in 10.0 mi Calm Calm - 0.00 in   Clear
2:56 AM 39.0 °F - 32.0 °F 76% 30.42 in 10.0 mi Calm Calm - N/A   Scattered Clouds
3:56 AM 43.0 °F 41.3 °F 33.1 °F 68% 30.42 in 10.0 mi SE 3.5 mph - N/A   Partly Cloudy
4:56 AM 45.0 °F 42.6 °F 34.0 °F 65% 30.43 in 10.0 mi South 4.6 mph - N/A   Clear
5:56 AM 46.0 °F 43.9 °F 34.0 °F 63% 30.43 in 10.0 mi South 4.6 mph - N/A   Overcast
6:56 AM 46.9 °F - 34.0 °F 61% 30.45 in 10.0 mi South 3.5 mph - N/A   Overcast
7:56 AM 46.0 °F 41.9 °F 34.0 °F 63% 30.45 in 10.0 mi South 8.1 mph - N/A   Partly Cloudy
8:56 AM 48.0 °F - 35.1 °F 61% 30.44 in 10.0 mi South 4.6 mph - N/A   Partly Cloudy
9:56 AM 51.1 °F - 35.1 °F 54% 30.45 in 10.0 mi South 8.1 mph - N/A   Clear
10:56 AM 53.1 °F - 37.0 °F 55% 30.45 in 10.0 mi SSW 9.2 mph - N/A   Scattered Clouds
11:56 AM 55.0 °F - 37.9 °F 53% 30.43 in 10.0 mi South 8.1 mph - N/A   Overcast
12:56 PM 57.0 °F - 39.0 °F 51% 30.40 in 10.0 mi South 8.1 mph - N/A   Clear
1:56 PM 57.9 °F - 39.0 °F 49% 30.39 in 10.0 mi Variable 5.8 mph - N/A   Clear
2:56 PM 57.0 °F - 39.0 °F 51% 30.38 in 10.0 mi South 6.9 mph - N/A   Clear
3:56 PM 55.0 °F - 39.9 °F 57% 30.37 in 10.0 mi SSE 3.5 mph - N/A   Partly Cloudy
4:56 PM 54.0 °F - 41.0 °F 62% 30.37 in 10.0 mi South 4.6 mph - N/A   Clear
5:56 PM 50.0 °F - 41.0 °F 71% 30.35 in 10.0 mi SE 3.5 mph - N/A   Clear
6:56 PM 46.9 °F - 39.9 °F 77% 30.34 in 10.0 mi SE 3.5 mph - N/A   Clear
7:56 PM 44.1 °F - 39.0 °F 82% 30.36 in 10.0 mi Calm Calm - N/A   Clear
8:56 PM 46.0 °F 44.8 °F 37.9 °F 73% 30.34 in 10.0 mi SSE 3.5 mph - N/A   Clear
9:56 PM 46.0 °F 44.8 °F 37.9 °F 73% 30.33 in 10.0 mi SE 3.5 mph - N/A   Clear
10:56 PM 42.1 °F 39.2 °F 36.0 °F 79% 30.31 in 10.0 mi SE 4.6 mph - N/A   Clear
11:56 PM 44.1 °F 40.8 °F 36.0 °F 73% 30.29 in 10.0 mi SE 5.8 mph - N/A   Scattered Clouds